[[{"header":{"parameterUnit":"m.s-1","parameterCategory":1,"la1":30.2991,"la2":30.254,"lo1":-89.0895,"lo2":-89.0444,"dy":0.0017,"dx":0.0017,"nx":28,"ny":28,"refTime":"2024-02-24T09:00:00:Z","depth":0,"parameterNumber":2,"parameterNumberName":"U-component_of_WINDS"},"data":[0,0,0,0,0,0,0,0,0,0,0,0,0,0,0,0,0,0,0,0,0,0,0,0,0,0,0,0,0,0,0,0,0,0,0,0,0,0,0,0,0,0,0,0,0,0,0,0,0,0,0,0,0,0,0,0,0,0,-0.8221,-0.8221,0,-0.8219,-0.8219,-0.8218,-0.8214,-0.8214,-0.8214,-0.8214,-0.8211,-0.8211,-0.8211,0,0,0,0,0,0,0,0,0,0,0,0,0,-0.8223,-0.8223,-0.8221,-0.8221,-0.8221,-0.8219,-0.8219,-0.8218,-0.8214,-0.8214,-0.8214,-0.8214,-0.8211,-0.8211,-0.8211,0,0,0,0,0,0,0,0,0,0,0,0,0,-0.8221,-0.8223,-0.8221,-0.8219,-0.8219,-0.8219,-0.8219,-0.8218,-0.8214,-0.8214,-0.8214,-0.8214,-0.8211,-0.8211,-0.8211,-0.8214,0,0,-0.8211,-0.8211,0,0,0,0,0,0,0,0,-0.8222,-0.8221,-0.8219,-0.8219,-0.8219,-0.8217,-0.8218,-0.8217,-0.8214,-0.8216,-0.8214,-0.8214,-0.8213,-0.8213,-0.8213,-0.8214,-0.8213,-0.8211,-0.8211,-0.8211,-0.8211,0,0,0,0,0,0,0,-0.8222,-0.8222,-0.822,-0.8219,-0.8219,-0.8218,-0.8218,-0.8218,-0.8215,-0.8216,-0.8215,-0.8215,-0.8213,-0.8213,-0.8213,-0.8213,-0.8211,-0.8211,-0.8211,-0.8211,-0.8216,-0.8216,0,0,0,0,0,0,-0.8222,-0.8222,-0.822,-0.822,-0.822,-0.8218,-0.8218,-0.8217,-0.8215,-0.8215,-0.8215,-0.8215,-0.8213,-0.8213,-0.8213,-0.8215,-0.8211,-0.8211,-0.8211,-0.8216,-0.8216,-0.8216,0,0,0,0,0,0,-0.8222,-0.8222,-0.822,-0.8221,-0.8221,-0.8218,-0.8218,-0.8217,-0.8217,-0.8215,-0.8214,-0.8215,-0.8213,-0.8213,-0.8213,-0.8215,-0.8211,-0.8211,-0.8216,-0.8216,-0.8216,-0.822,0,0,0,0,0,0,-0.8222,-0.8222,-0.8223,-0.8221,-0.8221,-0.8221,-0.8218,-0.8217,-0.8217,-0.8217,-0.8215,-0.8215,-0.8213,-0.8213,-0.8213,-0.8215,-0.8211,-0.8215,-0.8216,-0.8216,-0.822,-0.822,-0.8221,0,0,0,0,0,-0.8222,-0.8224,-0.8223,-0.8223,-0.8221,-0.8221,-0.8221,-0.8219,-0.8217,-0.8218,-0.8217,-0.8215,-0.8215,-0.8214,-0.8214,-0.8215,-0.8215,-0.8216,-0.8216,-0.8219,-0.822,-0.8221,0,0,0,0,0,0,-0.8227,-0.8224,-0.8223,-0.8224,-0.8223,-0.8221,-0.8222,-0.822,-0.8219,-0.8219,-0.8216,-0.8216,-0.8217,-0.8216,-0.8215,-0.8217,-0.8215,-0.8215,-0.8217,-0.8218,-0.8219,-0.8219,-0.8211,0,0,0,0,0,-0.8228,-0.8228,-0.8225,-0.8227,-0.8226,-0.8224,-0.8224,-0.8222,-0.8221,-0.8221,-0.8219,-0.8218,-0.8218,-0.8218,-0.8218,-0.822,-0.8219,-0.8221,-0.8221,-0.8221,-0.8222,-0.8222,-0.8223,-0.8217,-0.8217,-0.8217,0,0,-0.823,-0.8229,-0.8229,-0.8228,-0.8227,-0.8227,-0.8224,-0.8224,-0.8224,-0.8221,-0.8221,-0.822,-0.8219,-0.822,-0.8221,-0.822,-0.8223,-0.8222,-0.8222,-0.8222,-0.8223,-0.8223,-0.8224,-0.8217,-0.8217,-0.8217,0,0,-0.8234,-0.8233,-0.8234,-0.8233,-0.8232,-0.823,-0.823,-0.8228,-0.8228,-0.8228,-0.8226,-0.8226,-0.8225,-0.8225,-0.8224,-0.8228,-0.8226,-0.8228,-0.8231,-0.8231,-0.8232,-0.8232,-0.8233,-0.8234,-0.8228,-0.8228,-0.8228,0,-0.8237,-0.8237,-0.8235,-0.8235,-0.8235,-0.8232,-0.8233,-0.8232,-0.8231,-0.823,-0.8229,-0.8229,-0.8227,-0.8228,-0.8229,-0.8229,-0.8229,-0.8228,-0.8232,-0.8232,-0.8233,-0.8234,-0.8234,-0.8228,-0.8228,-0.8228,-0.8228,0,-0.8241,-0.8241,-0.8242,-0.8241,-0.824,-0.8241,-0.8239,-0.8239,-0.8237,-0.8236,-0.8236,-0.8235,-0.8234,-0.8234,-0.8233,-0.8235,-0.8234,-0.8232,-0.823,-0.8234,-0.8234,-0.8235,-0.8229,-0.8229,-0.8229,-0.8229,0,0,-0.8248,-0.8245,-0.8245,-0.8245,-0.8243,-0.8243,-0.8243,-0.8243,-0.8242,-0.8242,-0.8242,-0.8242,-0.824,-0.824,-0.8238,-0.8239,-0.8241,-0.8237,-0.8237,-0.8238,-0.8243,-0.8245,-0.8245,-0.824,-0.824,-0.824,-0.8244,0,-0.8252,-0.8252,-0.825,-0.8251,-0.8251,-0.8248,-0.8249,-0.8248,-0.8246,-0.8246,-0.8245,-0.8244,-0.8242,-0.8242,-0.8243,-0.8241,-0.8243,-0.8241,-0.824,-0.824,-0.8241,-0.8246,-0.8247,-0.825,-0.8244,-0.8244,-0.8244,0,-0.8256,-0.8255,-0.8256,-0.8254,-0.8254,-0.8255,-0.8254,-0.8254,-0.8252,-0.8251,-0.8251,-0.8249,-0.8249,-0.8247,-0.8247,-0.8246,-0.8246,-0.8245,-0.8245,-0.8245,-0.8242,-0.8245,-0.8251,-0.8251,-0.8245,-0.8245,-0.8245,0,-0.8261,-0.826,-0.8261,-0.826,-0.8258,-0.8258,-0.8257,-0.8256,-0.8255,-0.8254,-0.8254,-0.8253,-0.8253,-0.8252,-0.825,-0.8249,-0.8251,-0.8249,-0.825,-0.825,-0.825,-0.825,-0.8256,-0.825,-0.825,-0.825,-0.825,0,-0.8265,-0.8266,-0.8263,-0.8263,-0.8264,-0.8261,-0.8262,-0.8261,-0.8259,-0.8259,-0.8257,-0.8257,-0.8254,-0.8254,-0.8252,-0.8253,-0.8253,-0.8252,-0.8251,-0.8252,-0.8252,-0.8252,-0.8251,-0.8251,-0.825,-0.825,-0.825,0,-0.8271,-0.8268,-0.8269,-0.8266,-0.8266,-0.8266,-0.8264,-0.8265,-0.8263,-0.8263,-0.8263,-0.8261,-0.826,-0.8258,-0.8257,-0.8256,-0.8257,-0.8256,-0.8257,-0.8257,-0.8258,-0.8258,-0.8264,-0.8264,-0.8259,-0.8259,-0.8259,0,-0.8274,-0.8274,-0.8272,-0.8271,-0.827,-0.827,-0.827,-0.8267,-0.8267,-0.8265,-0.8266,-0.8265,-0.8264,-0.8264,-0.8262,-0.8261,-0.826,-0.8262,-0.826,-0.8261,-0.826,-0.826,-0.826,-0.8262,-0.8263,-0.8263,-0.8263,0,-0.8279,-0.8278,-0.8277,-0.8276,-0.8275,-0.8275,-0.8274,-0.8273,-0.8271,-0.827,-0.827,-0.8269,-0.8268,-0.8268,-0.8266,-0.8265,-0.8264,-0.8263,-0.8264,-0.8264,-0.8265,-0.8264,-0.8258,-0.8263,-0.8263,-0.8263,-0.8263,-0.8263,-0.8283,-0.8283,-0.8281,-0.8281,-0.828,-0.8279,-0.8279,-0.8277,-0.8277,-0.8275,-0.8274,-0.8274,-0.8272,-0.827,-0.827,-0.8269,-0.8268,-0.8268,-0.8269,-0.8269,-0.8269,-0.8265,-0.8269,-0.8269,-0.8269,-0.8269,-0.8269,0,-0.8288,-0.8287,-0.8286,-0.8285,-0.8284,-0.8282,-0.8281,-0.8281,-0.828,-0.8279,-0.8278,-0.8278,-0.8277,-0.8275,-0.8274,-0.8274,-0.8273,-0.8274,-0.8274,-0.8274,-0.827,-0.827,-0.8275,-0.8275,-0.8275,-0.8275,-0.8275,-0.8275,-0.8291,-0.8291,-0.8289,-0.8289,-0.8288,-0.8287,-0.8287,-0.8286,-0.8285,-0.8284,-0.8283,-0.8282,-0.828,-0.8279,-0.8278,-0.8278,-0.8278,-0.8279,-0.8278,-0.8274,-0.8274,-0.8273,-0.8273,-0.8279,-0.8279,-0.8281,-0.8281,-0.8281]},{"header":{"parameterUnit":"m.s-1","parameterCategory":1,"la1":30.2991,"la2":30.254,"lo1":-89.0895,"lo2":-89.0444,"dy":0.0017,"dx":0.0017,"nx":28,"ny":28,"refTime":"2024-02-24T09:00:00:Z","depth":0,"parameterNumber":3,"parameterNumberName":"V-component_of_WINDS"},"data":[0,0,0,0,0,0,0,0,0,0,0,0,0,0,0,0,0,0,0,0,0,0,0,0,0,0,0,0,0,0,0,0,0,0,0,0,0,0,0,0,0,0,0,0,0,0,0,0,0,0,0,0,0,0,0,0,0,0,2.8999,2.8999,0,2.8976,2.8976,2.8976,2.8916,2.8915,2.8914,2.8913,2.889,2.8891,2.8891,0,0,0,0,0,0,0,0,0,0,0,0,0,2.8992,2.8992,2.8999,2.8999,2.8998,2.8977,2.8976,2.8976,2.8917,2.8915,2.8913,2.8912,2.889,2.889,2.8891,0,0,0,0,0,0,0,0,0,0,0,0,0,2.8985,2.8992,2.8999,2.8966,2.8963,2.8977,2.8976,2.8976,2.8917,2.8915,2.8913,2.8911,2.889,2.889,2.8891,2.8935,0,0,2.8894,2.8894,0,0,0,0,0,0,0,0,2.8985,2.8985,2.8971,2.8968,2.8965,2.8947,2.8965,2.8962,2.8917,2.8934,2.8913,2.891,2.8911,2.891,2.891,2.8934,2.8933,2.8894,2.8895,2.8895,2.8895,0,0,0,0,0,0,0,2.8986,2.8986,2.899,2.8971,2.8967,2.8953,2.895,2.8964,2.8934,2.8933,2.8928,2.8927,2.8908,2.8909,2.8909,2.8933,2.8894,2.8895,2.8895,2.8896,2.8993,2.8995,0,0,0,0,0,0,2.8991,2.8987,2.8991,2.8989,2.8971,2.8955,2.8951,2.8955,2.8933,2.8928,2.8928,2.8924,2.8908,2.8908,2.8908,2.8958,2.8895,2.8896,2.8896,2.8991,2.8993,2.8996,0,0,0,0,0,0,2.8991,2.8992,2.8992,2.8987,2.8986,2.8957,2.8961,2.8955,2.8956,2.893,2.8924,2.8934,2.8907,2.8906,2.8929,2.8956,2.8896,2.8897,2.8989,2.8992,2.8995,2.9059,0,0,0,0,0,0,2.8991,2.8992,2.9008,2.8988,2.8986,2.9013,2.8963,2.8956,2.8957,2.8951,2.8934,2.8929,2.8905,2.8928,2.893,2.8957,2.8898,2.8986,2.899,2.8994,2.9055,2.9064,2.9072,0,0,0,0,0,2.8991,2.9027,2.9009,2.901,2.9005,2.9015,2.9014,2.8986,2.896,2.8976,2.8959,2.893,2.8953,2.8931,2.8932,2.896,2.8984,2.8989,2.8993,2.9051,2.9062,2.9072,0,0,0,0,0,0,2.9051,2.9024,2.9004,2.9034,2.9027,2.9005,2.9024,2.8999,2.8999,2.8994,2.8959,2.8955,2.8983,2.8973,2.8949,2.9002,2.8964,2.8969,2.9007,2.9018,2.9027,2.9028,2.8898,0,0,0,0,0,2.9068,2.9078,2.9053,2.9083,2.908,2.9053,2.9056,2.9035,2.9027,2.9023,2.9008,2.9002,2.9007,2.9012,2.9016,2.9053,2.9049,2.9073,2.9082,2.9089,2.9094,2.9114,2.9125,2.9011,2.9011,2.9011,0,0,2.9103,2.9089,2.9098,2.9095,2.9087,2.9098,2.9051,2.9065,2.9073,2.9025,2.9046,2.9035,2.9025,2.9055,2.9068,2.9048,2.9125,2.9095,2.9101,2.9102,2.912,2.9131,2.9141,2.9014,2.9013,2.9013,0,0,2.9173,2.9163,2.9187,2.918,2.9169,2.9151,2.9157,2.9139,2.913,2.915,2.9115,2.9124,2.9135,2.913,2.9128,2.9198,2.9171,2.92,2.9247,2.9267,2.9276,2.9284,2.9309,2.9319,2.9205,2.9205,2.9205,0,2.9218,2.9233,2.9202,2.9219,2.9219,2.9177,2.9201,2.9196,2.9187,2.9189,2.9167,2.918,2.917,2.9199,2.9217,2.9217,2.9223,2.9202,2.9277,2.9284,2.9291,2.9315,2.9325,2.9209,2.9208,2.9208,2.9208,0,2.9289,2.9301,2.9321,2.9314,2.9317,2.9337,2.931,2.9316,2.9295,2.928,2.9301,2.9288,2.929,2.9295,2.9274,2.9322,2.931,2.9283,2.9244,2.9306,2.9328,2.9337,2.9214,2.9213,2.9212,2.9211,0,0,2.9396,2.9372,2.938,2.9377,2.9362,2.9371,2.939,2.9391,2.9398,2.9393,2.9409,2.9419,2.9395,2.9393,2.9372,2.939,2.9447,2.9361,2.936,2.9378,2.9499,2.952,2.9531,2.9429,2.943,2.9431,2.95,0,2.9462,2.9493,2.9466,2.9502,2.9513,2.9474,2.949,2.9484,2.947,2.9477,2.9462,2.9471,2.9437,2.9436,2.9452,2.9436,2.9471,2.9431,2.9443,2.9444,2.9447,2.9542,2.9563,2.9629,2.9508,2.951,2.9511,0,2.9543,2.9543,2.958,2.9564,2.9568,2.9583,2.9583,2.959,2.9582,2.9571,2.9571,2.9545,2.9563,2.9525,2.955,2.9524,2.9527,2.9521,2.9523,2.9523,2.9481,2.9545,2.9649,2.9659,2.9524,2.9523,2.9522,0,2.9618,2.9627,2.9651,2.9649,2.9631,2.9643,2.9636,2.9626,2.9629,2.9629,2.963,2.9633,2.9634,2.9636,2.9612,2.9587,2.9641,2.9601,2.9633,2.9633,2.9646,2.9645,2.9752,2.9647,2.9647,2.9647,2.9647,0,2.9695,2.972,2.9684,2.9699,2.9726,2.9695,2.9723,2.9712,2.9704,2.9716,2.9682,2.9694,2.9661,2.9671,2.9652,2.9676,2.9677,2.9669,2.9663,2.9672,2.9673,2.9674,2.9669,2.965,2.9649,2.9649,2.9648,0,2.9783,2.9761,2.9784,2.9765,2.9761,2.9782,2.9766,2.9779,2.9764,2.978,2.9782,2.9757,2.9767,2.9743,2.9748,2.9735,2.9771,2.9758,2.9773,2.977,2.9803,2.9801,2.9914,2.9928,2.9815,2.9816,2.9817,0,2.9834,2.9852,2.9836,2.9842,2.9837,2.9846,2.9849,2.9821,2.9825,2.9818,2.9833,2.9839,2.9842,2.9859,2.9842,2.9846,2.9834,2.9873,2.9834,2.9843,2.9835,2.9835,2.9837,2.9882,2.9883,2.9884,2.9885,0,2.9927,2.9915,2.9921,2.9923,2.9928,2.9928,2.9926,2.9933,2.9902,2.9909,2.9918,2.9921,2.9927,2.9934,2.9935,2.9928,2.9902,2.9898,2.9905,2.9914,2.9923,2.992,2.9796,2.9895,2.9894,2.9893,2.9893,2.9892,2.9999,3.0013,3.0004,3.0012,3.0008,3.0007,3.0019,3.0005,3.0012,3.0014,2.9997,3.001,3.0003,3.0001,2.9997,3.0007,2.9989,3.0001,3.0003,3.0007,3.0013,2.9921,3.0007,3.0007,3.0007,3.0007,3.0006,0,3.0091,3.0083,3.0091,3.0089,3.0095,3.007,3.0067,3.0074,3.0086,3.0081,3.0086,3.0097,3.0104,3.0088,3.0093,3.0104,3.0093,3.0107,3.0106,3.0105,3.0028,3.0021,3.0116,3.0116,3.0116,3.0116,3.0116,3.0116,3.0139,3.0163,3.0151,3.0172,3.0164,3.0177,3.0178,3.0177,3.0173,3.0187,3.0193,3.0183,3.0174,3.0178,3.0183,3.0178,3.0182,3.0201,3.0192,3.0121,3.011,3.01,3.0093,3.0201,3.0202,3.0268,3.0268,3.0269]}]]